Home   Weather   Utah   Past weeks
Flag for USA

Past Weather in Utah, Utah, USA — Yesterday and Last 2 Weeks

Now
60 °F

Clear.


Feels Like: 60 °F
Forecast: 78 / 54 °F
Wind: No wind

Location: Provo Municipal
Current Time: Sep 26, 2020 at 12:01:55 am
Latest Report: Sep 25, 2020 at 10:56 pm
Visibility: 10 mi
Pressure29.89 "Hg
Humidity: 62%
Dew Point: 47 °F
Location of UtahLocation

Past Weather in Utah — Graph

°F

Utah Temperature Yesterday

Maximum temperature yesterday: 86 °F (at 3:56 pm)
Minimum temperature yesterday: 52 °F (at 6:56 am)
Average temperature yesterday: 69 °F

High & Low Weather Summary for the Past Weeks

 TemperatureHumidityPressure
High90 °F (Sep 17, 4:56 pm)83% (Sep 23, 7:56 am)30.20 "Hg (Sep 23, 7:56 am)
Low44 °F (Sep 11, 6:56 am)8% (Sep 14, 2:56 pm)29.77 "Hg (Sep 19, 4:56 am)
Average67 °F43%30.02 "Hg
* Reported Sep 10 10:56 pm — Sep 25 10:56 pm, Utah. Weather by CustomWeather, © 2020

Note: Actual official high and low records may vary slightly from our data, if they occured in-between our weather recording intervals... More about our weather records

Utah Weather History for the Previous 24 Hours

Scroll right to see more
 ConditionsComfort  
Time TempWeatherWind HumidityBarometerVisibility
10:56 pm
Fri, Sep 25
60 °FClear.No wind62%29.89 "Hg10 mi
9:56 pm65 °FClear.3 mph52%29.86 "Hg10 mi
8:56 pm65 °FClear.No wind51%29.87 "Hg10 mi
7:56 pm70 °FPassing clouds.8 mph44%29.87 "Hg10 mi
6:56 pm74 °FSunny.8 mph35%29.86 "Hg10 mi
5:56 pm78 °FSunny.12 mph37%29.86 "Hg10 mi
4:56 pm82 °FSunny.16 mph32%29.84 "Hg10 mi
3:56 pm86 °FSunny.9 mph19%29.80 "Hg10 mi
2:56 pm85 °FSunny.5 mph16%29.83 "Hg10 mi
1:56 pm85 °FScattered clouds.5 mph16%29.83 "Hg10 mi
12:56 pm82 °FSunny.6 mph22%29.88 "Hg10 mi
11:56 am72 °FSunny.3 mph44%29.93 "Hg10 mi
10:56 am69 °FSunny.No wind44%29.94 "Hg10 mi
9:56 am66 °FPassing clouds.No wind42%29.95 "Hg10 mi
8:56 am60 °FSunny.No wind56%29.95 "Hg10 mi
7:56 am52 °FSunny.3 mph66%29.94 "Hg9 mi
6:56 am52 °FClear.3 mph75%29.92 "Hg10 mi
5:56 am54 °FClear.3 mph67%29.90 "Hg10 mi
4:56 am57 °FClear.No wind62%29.86 "Hg10 mi
3:56 am64 °FClear.9 mph49%29.83 "Hg10 mi
2:56 am65 °FClear.10 mph45%29.83 "Hg10 mi
2:14 am66 °FClear.14 mph49%29.98 "Hg10 mi
1:56 am73 °FClear.17 mph37%29.78 "Hg10 mi
12:56 am64 °FClear.6 mph38%29.79 "Hg10 mi
Weather by CustomWeather, © 2020

See weather overview